Probability
0 0 0 0 0 0 0 0 0 0 0 0 0 0 0 0 0 0 0 0 0 0 0 0 0 0 0 0 0 0 0 0 0 0 0 0 0 0 0 0 0 0 0 0 0 0 0 0 0
0 0 0 0 0 0 0 0 0 0 0 0 0 0 0 0 0 0 0 0 0 0 0 0 0 0 0 0 0 0 0 0 0 0 0 0 0 0 0 0 0 0 0 0 0 0 0 0 0
0 0 0 0 0 0 0 0 0 0 0 0 0 0 0 0 0 0 0 0 0 0 0 0 0 0 0 0 0 0 0 0 0 0 0 0 0 0 0 0 0 0 0 0 0 0 0 0 0
0 0 0 0 0 0 0 0 0 0 0 0 0 0 0 0 0 0 0 0 0 0 0 0 0 0 0 0 0 0 0 0 0 0 0 0 0 0 0 0 0 0 0 0 0 0 0 0 0
0 0 0 0 0 0 0 0 0 0 0 0 0 0 0 0 0 0 0 0 0 0 0 0 0 0 0 0 0 0 0 0 0 0 0 0 0 0 0 0 0 0 0 0 0 0 0 0 0
0 0 0 0 0 0 0 0 0 0 0 0 0 0 0 0 0 0 0 0 0 0 0 0 0 0 0 0 0 0 0 0 0 0 0 0 0 0 0 0 0 0 0 0 0 0 0 0 0
0 0 0 0 0 0 0 0 0 0 0 0 0 0 0 0 0 0 0 0 0 0 0 0 0 0 0 0 0 0 0 0 0 0 0 0 0 0 0 0 0 0 0 0 0 0 0 0 0
0 0 0 0 0 0 0 0 0 0 0 0 0 0 0 0 0 0 0 0 0 0 0 0 0 0 0 0 0 0 0 0 0 0 0 0 0 0 0 0 0 0 0 0 0 0 0 0 0
0 0 0 0 0 0 0 0 0 0 0 0 0 0 0 0 0 0 0 0 0 0 0 0 0 0 0 0 0 0 0 0 0 0 0 0 0 0 0 0 0 0 0 0 0 0 0 0 0
0 0 0 0 0 0 0 0 0 0 0 0 0 0 0 0 0 0 0 0 0 0 0 0 0 0 0 0 0 0 0 0 0 0 0 0 0 0 0 0 0 0 0 0 0 0 0 0 0
0 0 0 0 0 0 0 0 0 0 0 0 0 0 0 0 0 0 0 0 0 0 0 0 0 0 0 0 0 0 0 0 0 0 0 0 0 0 0 0 0 0 0 0 0 0 0 0 0
0 0 0 0 0 0 0 0 0 0 0 0 0 0 0 0 0 0 0 0 0 0 0 0 0 0 0 0 0 0 0 0 0 0 0 0 0 0 0 0 0 0 0 0 0 0 0 0 0
0 0 0 0 0 0 0 0 0 0 0 0 0 0 0 0 0 0 0 0 0 0 0 0 0 0 0 0 0 0 0 0 0 0 0 0 0 0 0 0 0 0 0 0 0 0 0 0 0
0 0 0 0 0 0 0 0 0 0 0 0 0 0 0 0 0 0 0 0 0 0 0 0 0 0 0 0 0 0 0 0 0 0 0 0 0 0 0 0 0 0 0 0 0 0 0 0 0
0 0 0 0 0 0 0 0 0 0 0 0 0 0 0 0 0 0 0 0 0 0 0 0 0 0 0 0 0 0 0 0 0 0 0 0 0 0 0 0 0 0 0 0 0 0 0 0 0
0 0 0 0 0 0 0 0 0 0 0 0 0 0 0 0 0 0 0 0 0 0 0 0 0 0 0 0 0 0 0 0 0 0 0 0 0 0 0 0 0 0 0 0 0 0 0 0 0
0 0 0 0 0 0 0 0 0 0 0 0 0 0 0 0 0 0 0 0 0 0 0 0 0 0 0 0 0 0 0 0 0 0 0 0 0 0 0 0 0 0 0 0 0 0 0 0 0
0 0 0 0 0 0 0 0 0 0 0 0 0 0 0 0 0 0 0 0 0 0 0 0 0 0 0 0 0 0 0 0 0 0 0 0 0 0 0 0 0 0 0 0 0 0 0 0 0
0 0 0 0 0 0 0 0 0 0 0 0 0 0 0 0 0 0 0 0 0 0 0 0 0 0 0 0 0 0 0 0 0 0 0 0 0 0 0 0 0 0 0 0 0 0 0 0 0
0 0 0 0 0 0 0 0 0 0 0 0 0 0 0 0 0 0 0 0 0 0 0 0 0 0 0 0 0 0 0 0 0 0 0 0 0 0 0 0 0 0 0 0 0 0 0 0 0
0 0 0 0 0 0 0 0 0 0 0 0 0 0 0 0 0 0 0 0 0 0 0 0 0 0 0 0 0 0 0 0 0 0 0 0 0 0 0 0 0 0 0 0 0 0 0 0 0
0 0 0 0 0 0 0 0 0 0 0 0 0 0 0 0 0 0 0 0 0 0 0 0 0 0 0 0 0 0 0 0 0 0 0 0 0 0 0 0 0 0 0 0 0 0 0 0 0
0 0 0 0 0 0 0 0 0 0 0 0 0 0 0 0 0 0 0 0 0 0 0 0 0 0 0 0 0 0 0 0 0 0 0 0 0 0 0 0 0 0 0 0 0 0 0 0 0
0 0 0 0 0 0 0 0 0 0 0 0 0 0 0 0 0 0 0 0 0 0 0 0 0 0 0 0 0 0 0 0 0 0 0 0 0 0 0 0 0 0 0 0 0 0 0 0 0
0 0 0 0 0 0 0 0 0 0 0 0 0 0 0 0 0 0 0 0 0 0 0 0 0 0 0 0 0 0 0 0 0 0 0 0 0 0 0 0 0 0 0 0 0 0 0 0 0
0 0 0 0 0 0 0 0 0 0 0 0 0 0 0 0 0 0 0 0 0 0 0 0 0 0 0 0 0 0 0 0 0 0 0 0 0 0 0 0 0 0 0 0 0 0 0 0 0
0 0 0 0 0 0 0 0 0 0 0 0 0 0 0 0 0 0 0 0 0 0 0 0 0 0 0 0 0 0 0 0 0 0 0 0 0 0 0 0 0 0 0 0 0 0 0 0 0
0 0 0 0 0 0 0 0 0 0 0 0 0 0 0 0 0 0 0 0 0 0 0 0 0 0 0 0 0 0 0 0 0 0 0 0 0 0 0 0 0 0 0 0 0 0 0 0 0
0 0 0 0 0 0 0 0 0 0 0 0 0 0 0 0 0 0 0 0 0 0 0 0 0 0 0 0 0 0 0 0 0 0 0 0 0 0 0 0 0 0 0 0 0 0 0 0 0
0 0 0 0 0 0 0 0 0 0 0 0 0 0 0 0 0 0 0 0 0 0 0 0 0 0 0 0 0 0 0 0 0 0 0 0 0 0 0 0 0 0 0 0 0 0 0 0 0
Height
5856 5856 5857 5858 5860 5861 5860 5861 5861 5862 5863 5864 5865 5865 5866 5867 5869 5871 5870 5870 5871 5872 5872 5873 5873 5874 5874 5874 5875 5875 5875 5875 5876 5875 5875 5875 5875 5875 5874 5874 5874 5874 5873 5873 5872 5872 5871 5870 5870
5855 5856 5857 5858 5859 5859 5860 5860 5861 5862 5862 5863 5864 5864 5865 5866 5867 5868 5868 5869 5870 5870 5871 5871 5872 5872 5873 5873 5873 5873 5873 5873 5873 5873 5873 5873 5873 5873 5872 5872 5871 5871 5870 5870 5869 5869 5868 5867 5866
5855 5855 5857 5858 5858 5859 5859 5859 5860 5861 5862 5862 5863 5863 5864 5865 5866 5867 5867 5868 5869 5870 5870 5870 5871 5871 5871 5871 5871 5871 5871 5871 5871 5871 5871 5871 5870 5870 5870 5869 5869 5868 5867 5867 5866 5866 5865 5864 5863
5854 5855 5857 5858 5857 5858 5858 5859 5859 5860 5861 5861 5862 5863 5863 5864 5865 5866 5866 5867 5868 5868 5869 5869 5869 5869 5869 5869 5869 5869 5869 5869 5869 5869 5869 5868 5868 5867 5867 5866 5866 5865 5864 5864 5863 5862 5861 5861 5860
5853 5854 5855 5856 5856 5856 5857 5858 5859 5859 5860 5861 5861 5862 5862 5863 5863 5864 5865 5866 5866 5867 5867 5867 5867 5868 5868 5868 5867 5867 5867 5867 5867 5866 5866 5866 5865 5865 5864 5863 5863 5862 5861 5860 5860 5859 5858 5857 5856
5852 5853 5854 5854 5854 5855 5856 5857 5858 5858 5859 5859 5860 5861 5862 5862 5862 5863 5863 5864 5865 5865 5865 5865 5865 5866 5866 5865 5865 5865 5865 5864 5864 5864 5863 5863 5862 5862 5861 5860 5859 5858 5858 5857 5856 5855 5854 5853 5852
5850 5851 5851 5852 5852 5853 5855 5855 5856 5857 5857 5858 5858 5859 5861 5860 5861 5861 5862 5862 5863 5863 5863 5863 5863 5863 5863 5863 5862 5862 5862 5861 5861 5861 5860 5859 5859 5858 5857 5856 5855 5854 5854 5853 5852 5851 5850 5848 5847
5846 5848 5849 5849 5850 5851 5853 5853 5854 5855 5856 5856 5857 5858 5859 5859 5859 5860 5860 5860 5861 5861 5861 5861 5861 5861 5860 5860 5860 5859 5859 5858 5858 5857 5856 5856 5855 5854 5853 5852 5851 5850 5849 5848 5847 5846 5845 5844 5842
5842 5845 5846 5846 5847 5849 5850 5851 5852 5853 5853 5854 5855 5856 5857 5857 5857 5858 5858 5858 5858 5858 5859 5858 5858 5858 5857 5857 5856 5856 5855 5855 5854 5853 5853 5852 5851 5850 5849 5848 5847 5846 5845 5844 5842 5841 5840 5839 5837
5838 5840 5842 5843 5844 5845 5847 5848 5850 5850 5851 5852 5853 5853 5854 5854 5855 5855 5855 5856 5856 5856 5856 5855 5855 5855 5854 5854 5853 5852 5852 5851 5850 5849 5849 5848 5847 5846 5845 5844 5842 5841 5840 5839 5837 5836 5835 5833 5832
5833 5836 5837 5838 5840 5842 5843 5845 5846 5847 5848 5849 5850 5851 5851 5852 5852 5852 5852 5852 5852 5852 5852 5852 5852 5851 5851 5850 5849 5849 5848 5847 5846 5845 5844 5843 5842 5841 5840 5839 5837 5836 5835 5833 5832 5831 5829 5828 5826
5827 5830 5831 5834 5836 5838 5839 5841 5842 5844 5845 5845 5846 5847 5848 5848 5848 5849 5849 5849 5849 5849 5848 5848 5848 5847 5847 5846 5845 5844 5844 5843 5842 5841 5840 5839 5837 5836 5835 5834 5832 5831 5829 5828 5826 5825 5824 5822 5821
5821 5824 5826 5828 5831 5833 5835 5836 5838 5840 5840 5841 5842 5843 5844 5844 5845 5845 5845 5845 5845 5845 5845 5844 5844 5843 5842 5842 5841 5840 5839 5838 5837 5836 5835 5834 5832 5831 5830 5828 5827 5825 5824 5822 5821 5819 5817 5816 5814
5814 5817 5819 5822 5825 5827 5829 5831 5833 5835 5835 5837 5838 5839 5839 5840 5840 5840 5840 5840 5840 5840 5840 5839 5839 5838 5837 5836 5836 5835 5834 5833 5831 5830 5829 5828 5826 5825 5824 5822 5821 5819 5818 5816 5814 5813 5811 5809 5807
5806 5810 5813 5816 5818 5821 5823 5826 5828 5829 5830 5832 5833 5833 5834 5835 5835 5835 5835 5835 5835 5835 5834 5834 5833 5832 5832 5831 5830 5829 5828 5827 5826 5824 5823 5822 5820 5819 5817 5816 5814 5813 5811 5810 5808 5806 5804 5803 5801
5798 5802 5806 5809 5811 5813 5817 5821 5821 5823 5824 5826 5827 5827 5828 5829 5829 5829 5830 5830 5829 5829 5829 5828 5827 5826 5826 5824 5823 5823 5822 5820 5819 5818 5816 5815 5814 5812 5811 5809 5808 5806 5805 5803 5801 5799 5798 5796 5794
5791 5795 5798 5801 5803 5806 5809 5813 5814 5815 5817 5819 5820 5821 5822 5823 5823 5823 5823 5823 5823 5823 5822 5822 5821 5820 5819 5818 5817 5816 5815 5814 5812 5811 5810 5808 5807 5805 5804 5803 5801 5799 5798 5796 5794 5792 5791 5789 5786
5785 5788 5790 5792 5794 5798 5801 5805 5808 5808 5810 5812 5813 5814 5814 5815 5816 5816 5816 5816 5816 5816 5815 5815 5814 5813 5812 5811 5810 5809 5808 5807 5805 5804 5803 5801 5800 5799 5797 5796 5794 5792 5791 5789 5787 5785 5783 5781 5779
5775 5778 5782 5785 5786 5789 5792 5796 5800 5800 5802 5804 5805 5806 5807 5808 5808 5809 5809 5809 5809 5808 5808 5807 5807 5806 5805 5804 5803 5802 5801 5800 5798 5797 5796 5794 5793 5791 5790 5788 5787 5785 5783 5782 5780 5778 5776 5774 5771
5767 5770 5774 5777 5778 5780 5783 5788 5792 5793 5794 5796 5797 5798 5799 5800 5800 5801 5802 5801 5801 5800 5800 5800 5799 5798 5797 5797 5795 5794 5793 5792 5791 5789 5788 5787 5785 5784 5782 5781 5779 5778 5776 5774 5772 5770 5768 5766 5763
5758 5763 5766 5769 5770 5771 5774 5779 5784 5785 5786 5788 5789 5790 5791 5792 5792 5793 5794 5794 5793 5793 5792 5792 5791 5790 5789 5789 5788 5786 5785 5784 5783 5782 5780 5779 5778 5776 5775 5773 5772 5770 5768 5767 5764 5762 5760 5758 5755
5751 5755 5758 5760 5761 5764 5766 5768 5776 5777 5778 5780 5781 5782 5783 5784 5784 5785 5785 5785 5785 5785 5784 5784 5783 5782 5781 5781 5780 5779 5778 5777 5776 5774 5773 5771 5770 5769 5767 5766 5764 5762 5761 5758 5756 5754 5752 5749 5747
5743 5746 5749 5751 5753 5755 5758 5758 5767 5770 5770 5772 5773 5774 5774 5775 5776 5776 5777 5777 5777 5777 5776 5775 5775 5774 5773 5773 5772 5771 5770 5769 5768 5767 5765 5764 5762 5761 5760 5758 5756 5754 5752 5750 5748 5745 5743 5740 5738
5734 5737 5740 5742 5744 5746 5752 5752 5756 5761 5763 5764 5765 5766 5766 5767 5768 5768 5768 5769 5769 5768 5768 5767 5767 5766 5765 5764 5764 5763 5762 5761 5760 5759 5758 5756 5755 5754 5752 5750 5748 5746 5744 5742 5739 5737 5734 5732 5729
5724 5728 5731 5733 5734 5739 5744 5744 5748 5753 5755 5756 5757 5758 5758 5759 5760 5760 5760 5760 5760 5760 5759 5759 5758 5758 5757 5756 5756 5755 5754 5753 5752 5751 5750 5749 5747 5746 5744 5742 5740 5738 5736 5733 5731 5728 5726 5722 5719
5716 5720 5725 5727 5729 5732 5733 5735 5742 5745 5747 5748 5749 5750 5751 5751 5752 5752 5752 5752 5752 5752 5751 5751 5750 5750 5749 5748 5748 5747 5746 5745 5744 5743 5742 5741 5739 5738 5736 5734 5732 5730 5727 5725 5722 5720 5716 5713 5710
5707 5710 5717 5719 5720 5722 5724 5728 5733 5736 5739 5740 5742 5742 5743 5744 5744 5744 5744 5744 5744 5744 5743 5743 5743 5742 5741 5741 5740 5739 5738 5737 5736 5735 5734 5733 5731 5729 5727 5725 5724 5721 5719 5716 5713 5710 5707 5704 5700
5698 5703 5706 5708 5711 5713 5717 5721 5725 5728 5731 5733 5734 5735 5735 5736 5736 5736 5736 5736 5736 5736 5735 5735 5735 5734 5733 5733 5732 5731 5730 5729 5728 5727 5726 5724 5722 5721 5719 5717 5715 5712 5710 5707 5704 5701 5697 5694 5690
5689 5693 5696 5701 5704 5707 5709 5716 5718 5720 5722 5724 5726 5727 5728 5728 5728 5728 5728 5728 5728 5728 5727 5727 5726 5726 5725 5725 5724 5723 5722 5721 5720 5719 5717 5716 5714 5712 5710 5708 5706 5703 5700 5697 5694 5691 5687 5684 5680
5679 5684 5688 5692 5696 5699 5702 5709 5710 5712 5714 5716 5717 5719 5719 5720 5720 5720 5720 5720 5720 5720 5719 5719 5718 5718 5717 5717 5716 5715 5714 5713 5711 5710 5708 5707 5705 5703 5701 5699 5696 5694 5690 5687 5684 5680 5677 5673 5669
Wind_Speed
5 6 7 7 7 7 7 6 6 6 6 6 5 6 6 5 4 4 4 4 5 5 6 7 7 7 8 8 9 10 10 11 11 12 12 13 13 14 15 15 16 16 16 17 17 17 17 18 18
6 7 7 8 8 8 7 6 6 6 6 5 5 6 5 4 4 4 4 4 5 5 5 6 6 7 7 8 9 9 10 11 11 12 12 13 14 14 15 15 16 16 17 17 18 18 18 18 19
8 8 8 8 8 8 7 7 7 6 5 5 6 6 5 4 4 5 5 5 5 5 6 6 7 7 8 8 9 10 11 11 12 12 13 13 14 15 15 15 16 16 17 17 18 18 18 19 20
9 9 9 8 8 7 7 7 7 6 6 6 6 6 5 5 5 5 5 6 6 7 7 8 8 8 9 10 10 11 11 12 12 13 14 14 15 15 16 16 16 17 18 18 19 19 20 20 21
12 11 11 10 9 8 8 7 7 7 7 6 6 6 5 6 6 6 6 6 7 7 8 9 9 10 10 11 11 12 12 13 13 14 15 15 16 16 17 18 18 19 19 20 20 21 21 22 22
14 13 13 12 11 10 9 9 8 8 8 8 7 7 6 7 7 7 8 8 8 8 9 10 10 11 12 12 13 13 13 14 15 15 16 17 18 18 19 19 20 20 21 21 22 22 23 23 24
16 16 15 14 13 12 11 10 10 10 10 9 9 8 7 8 8 9 9 10 10 10 11 12 12 13 13 14 14 14 15 15 16 17 18 18 19 19 20 21 21 22 22 23 23 24 24 25 26
19 18 18 17 16 15 13 13 12 12 12 11 11 10 7 10 10 10 11 12 12 13 13 14 15 15 15 16 16 16 17 17 18 19 19 19 20 20 21 22 22 23 23 24 25 25 26 27 27
23 21 20 20 19 18 16 15 15 14 14 13 13 12 11 12 12 13 13 14 14 15 15 16 16 16 17 17 18 18 18 19 19 20 20 20 21 22 22 23 23 24 24 25 25 26 26 27 28
26 24 23 22 22 20 19 18 17 17 16 16 15 14 14 14 14 15 15 16 16 16 17 17 18 18 18 19 20 20 20 20 20 21 21 22 22 23 23 24 24 25 25 26 27 27 27 28 28
29 27 26 25 24 23 22 21 20 20 19 19 18 17 17 17 17 17 17 18 18 18 19 19 19 20 20 21 21 21 22 22 22 22 23 23 23 23 24 25 25 26 27 27 28 28 28 29 29
32 31 30 28 27 26 25 24 23 22 22 22 21 20 19 19 20 20 20 20 20 21 21 22 22 22 22 23 23 23 23 24 24 24 24 24 25 25 25 26 27 27 28 28 29 29 29 30 31
35 33 32 31 30 29 28 27 26 25 25 24 23 23 22 22 22 23 23 23 23 23 24 25 25 25 25 25 25 25 25 26 26 26 26 26 26 27 27 27 28 29 30 30 30 30 31 31 32
37 36 35 34 32 31 31 30 29 27 28 27 26 26 25 25 25 25 25 26 26 26 27 27 28 28 28 28 28 28 28 28 28 28 28 28 29 29 29 29 30 30 31 31 31 31 32 32 33
39 38 37 36 35 34 34 32 31 30 30 29 29 28 28 28 28 28 28 28 29 29 29 30 30 30 30 30 29 29 30 30 30 30 30 30 30 30 30 31 31 32 32 32 33 33 33 33 33
40 39 38 38 38 37 36 33 33 33 32 31 31 31 31 31 31 31 30 31 31 31 32 32 32 32 32 32 31 31 31 31 31 32 32 32 32 32 32 32 32 32 33 33 33 33 34 34 34
41 39 38 39 39 38 38 35 35 35 34 34 34 34 34 33 33 34 33 33 33 34 34 34 34 34 33 33 33 33 32 32 32 33 33 33 33 32 33 33 33 33 33 33 34 34 34 34 34
39 39 39 40 41 40 39 37 36 37 37 36 36 36 36 35 35 35 35 35 35 35 35 35 35 35 34 34 35 34 34 34 34 34 34 34 33 33 33 34 34 34 34 34 34 35 34 34 34
41 41 41 40 41 42 40 38 37 38 39 37 37 37 37 37 37 36 36 36 36 36 36 36 36 36 36 35 36 36 36 35 35 34 34 33 33 34 34 34 33 33 34 35 35 35 35 35 35
43 42 41 41 42 43 42 40 38 38 39 38 37 37 38 38 37 37 36 36 36 36 36 36 36 36 36 36 36 36 36 35 34 34 33 34 34 34 34 33 34 34 34 34 35 35 36 36 36
43 42 41 41 42 43 43 41 38 38 38 38 38 39 39 38 38 38 37 37 37 36 37 36 36 36 37 36 36 36 35 35 34 34 34 34 34 33 33 33 34 35 35 35 36 36 36 36 36
42 40 40 41 42 42 43 43 37 37 37 38 39 39 38 38 38 38 37 37 37 37 37 37 36 36 36 36 36 35 35 35 35 35 34 34 33 34 34 35 35 35 36 36 36 37 37 37 37
42 41 42 42 43 43 42 44 38 35 36 37 37 38 37 37 37 37 37 36 37 36 36 36 36 36 36 36 35 35 34 34 34 34 33 34 34 34 35 35 35 36 36 36 37 37 37 37 38
42 42 43 43 44 45 40 42 41 35 35 35 36 36 36 36 36 36 36 35 35 35 35 35 35 35 35 35 35 34 34 34 33 33 33 34 34 34 35 35 35 35 36 37 37 37 38 38 39
44 43 43 43 44 44 40 42 41 36 34 34 35 34 34 34 34 34 34 34 33 33 34 34 34 34 34 34 34 34 34 34 33 33 33 33 34 34 34 35 35 36 37 37 37 38 39 40 40
44 44 43 42 42 41 41 41 39 35 33 33 33 33 33 33 33 33 33 33 33 33 33 33 33 33 33 33 34 34 34 34 33 33 34 34 34 34 34 35 36 37 37 38 39 40 40 41 41
45 44 41 42 42 42 42 41 38 34 33 32 32 32 33 33 33 33 33 33 33 32 32 32 33 33 33 33 34 34 34 34 34 34 34 34 34 34 35 35 36 37 38 39 40 41 41 42 42
46 43 42 43 43 43 42 40 39 36 33 32 32 32 32 32 32 32 32 32 32 32 32 32 32 33 33 33 33 33 34 34 34 34 34 35 35 35 36 36 37 38 39 41 41 42 42 42 43
45 45 44 44 44 43 42 40 37 36 34 32 31 31 31 31 31 31 31 31 31 31 31 32 32 32 32 32 33 34 34 34 34 34 35 35 36 36 36 37 38 40 41 42 43 43 43 44 45
45 44 44 44 44 42 42 40 37 36 35 32 32 31 31 30 30 30 30 31 31 31 31 31 32 32 32 33 33 34 34 34 34 35 35 36 36 37 38 39 40 41 42 43 44 44 44 45 46
Wind_Direction
178 178 177 179 182 184 188 192 197 203 211 216 221 228 234 238 246 249 245 244 248 253 259 265 269 273 276 279 281 282 284 285 287 288 289 291 293 293 294 294 294 294 294 293 293 292 292 291 291
184 182 180 182 187 188 190 193 197 203 205 211 218 227 233 233 239 241 247 248 252 259 265 270 273 277 281 283 284 286 288 289 290 290 290 291 293 294 295 295 295 294 293 292 291 291 291 290 290
194 191 187 189 193 194 192 194 200 202 207 213 220 229 235 233 241 250 254 256 258 265 270 274 278 283 286 288 289 290 291 293 293 293 294 294 294 295 295 295 295 295 294 292 291 290 290 289 289
206 202 198 198 197 198 199 199 203 206 212 219 225 230 238 239 239 250 259 263 265 266 270 274 279 285 289 291 292 292 293 294 293 293 294 294 295 295 294 294 294 294 293 292 292 291 290 289 288
214 211 209 207 206 206 207 209 213 217 220 226 233 234 237 243 244 250 258 265 269 271 271 273 278 283 287 289 291 292 292 292 291 291 292 292 293 293 293 294 294 293 293 292 291 290 289 289 288
220 219 217 215 215 215 215 219 225 229 229 232 239 241 237 248 250 254 260 267 272 274 277 279 281 284 287 289 291 292 292 292 290 290 290 291 291 291 291 292 292 292 291 291 290 289 289 289 288
225 224 225 224 224 223 224 227 232 238 240 240 246 249 243 253 256 260 265 271 275 277 280 282 284 286 288 289 289 291 292 292 292 291 291 291 290 290 290 289 289 289 290 289 289 289 288 288 288
228 228 230 231 232 231 231 234 238 243 247 249 254 258 255 260 263 266 269 273 277 280 282 284 285 287 288 289 289 290 291 292 292 292 291 291 290 290 290 289 289 289 289 289 288 289 289 289 288
230 231 232 234 235 236 236 238 241 246 251 254 259 265 265 266 269 271 273 276 279 283 284 285 286 287 288 288 289 290 290 291 292 292 292 291 291 290 290 290 289 289 289 289 289 289 289 289 289
233 233 234 235 237 239 239 241 243 247 252 256 260 265 269 271 273 276 277 278 281 284 286 287 288 288 288 288 289 289 289 290 291 292 291 291 290 290 289 289 289 289 290 290 289 289 289 289 289
234 235 236 237 239 240 241 243 245 248 252 256 261 264 269 273 275 277 279 280 282 284 285 287 289 289 289 289 289 289 289 289 290 291 292 291 291 290 289 289 289 289 290 290 289 289 289 290 290
235 236 238 239 240 241 243 245 248 251 254 258 262 265 267 271 275 277 278 279 281 283 284 287 289 289 289 289 288 288 288 288 290 290 290 290 290 290 289 289 289 289 289 289 289 289 289 290 290
237 237 239 240 241 243 245 247 249 252 255 259 262 266 268 270 273 276 278 279 281 283 285 287 288 288 289 288 287 287 287 287 288 289 290 289 289 289 289 289 289 289 289 290 290 290 290 290 291
238 239 241 242 243 245 247 248 250 252 255 259 261 265 268 270 273 275 278 280 281 283 285 286 287 288 289 288 287 287 287 287 287 288 289 289 289 289 289 289 289 290 291 291 291 290 290 290 291
239 240 241 243 245 246 247 249 251 252 256 258 261 264 267 270 272 275 277 279 280 282 284 285 286 287 287 287 287 287 287 287 287 287 288 288 288 288 288 289 290 290 291 290 290 291 291 291 292
240 241 242 244 246 247 248 249 252 253 256 259 262 264 267 269 272 274 276 278 280 281 282 284 285 286 286 286 286 286 286 286 286 287 287 286 286 287 287 288 289 290 290 290 290 291 292 292 292
240 243 244 246 246 248 250 250 253 256 257 259 262 265 266 269 271 273 276 278 279 280 282 283 284 284 284 284 285 285 285 285 285 285 285 286 286 286 287 287 288 289 289 289 290 291 293 293 293
242 244 245 247 249 249 251 252 254 258 259 261 263 265 267 269 270 273 275 277 278 279 280 282 282 283 283 283 284 284 284 284 284 284 285 285 285 285 286 287 288 289 289 289 290 292 294 294 294
242 243 245 248 251 252 252 253 254 257 260 262 263 265 267 269 271 273 274 276 278 279 280 280 281 282 282 283 283 283 284 284 284 284 284 284 284 285 285 286 288 289 289 290 292 293 294 295 295
241 244 245 248 251 254 254 254 255 257 260 263 264 266 268 270 271 273 274 276 277 279 279 280 280 280 281 281 282 283 284 284 283 282 283 283 283 285 285 286 288 289 290 291 293 294 294 295 295
241 244 246 248 251 254 257 255 255 257 260 263 265 267 269 271 272 274 274 275 276 278 279 279 280 280 281 281 281 282 282 282 282 282 282 283 284 284 285 286 287 288 289 291 293 294 295 296 296
242 244 247 249 252 255 258 258 254 258 260 263 265 268 270 272 273 274 275 275 276 277 278 278 279 279 280 280 281 281 281 281 281 282 283 282 283 284 284 286 287 288 289 291 293 294 295 296 297
242 244 247 249 252 255 257 261 258 258 261 264 266 269 271 273 274 275 275 275 276 277 277 277 278 278 279 280 280 280 280 280 281 282 282 282 283 284 285 286 287 289 290 291 293 295 296 297 297
241 243 246 249 252 254 256 262 262 260 262 265 268 270 271 273 274 275 276 276 276 276 276 277 278 278 278 279 279 280 279 280 280 281 281 282 283 285 285 286 288 290 291 293 294 295 296 297 298
239 242 245 248 251 256 258 259 262 263 264 266 268 269 271 272 274 275 276 276 276 276 277 277 278 278 278 278 279 279 279 279 279 280 281 282 283 284 284 286 289 291 292 293 294 295 296 297 297
241 243 246 250 254 257 257 258 262 265 266 266 267 269 271 273 274 275 276 277 277 278 278 278 278 277 277 278 278 278 278 279 279 280 281 282 283 284 285 287 289 291 292 293 294 295 296 297 298
239 242 245 248 251 255 258 261 262 265 266 266 268 269 271 272 274 275 277 277 278 278 278 277 277 277 277 278 278 278 278 279 280 280 282 283 283 284 285 287 289 290 292 293 294 295 296 297 298
238 240 241 244 249 253 258 261 265 265 265 267 268 269 271 273 274 276 277 278 278 278 278 278 277 277 277 277 277 278 279 279 280 281 281 282 283 284 285 286 288 290 292 293 294 295 296 297 298
237 238 241 245 249 253 258 261 264 267 268 268 269 270 271 273 275 276 277 278 279 279 278 278 278 278 278 278 278 279 280 281 281 281 281 282 283 284 286 287 289 291 292 293 294 295 296 297 298
238 240 242 245 248 252 257 259 262 266 268 269 270 271 272 273 275 276 278 279 280 280 279 279 279 279 279 279 280 280 281 281 281 281 282 283 284 285 287 289 290 292 293 294 295 296 296 297 299